OBJECT N, 64888

Orbit data source: Space-Track

You're viewing an Uncataloged Satellite

Recently launched and/or uncataloged satellites may have evolving metadata. Metadata may include but not limited to: Owner, Maufacturer, Bus, Motor, and Mission.

OBJECT N, 64888 is a satellite in SSO that was launched on Fri, 25 Jul 2025 UTC via a SOYUZ-2-1B launch vehicle from the Vostochny Cosmodrome (VOSTO). Unknown objects in Earth's orbit typically refer to objects detected orbiting the Earth but have not yet been identified or cataloged. These objects could be anything from previously untracked satellites, spent rocket stages, debris from satellite collisions, or even natural meteoroids temporarily captured by Earth's gravity.

Loading next visibility...
Identifier
64888, 2025-155N
Orbit
SSO
Country
Flag of TBDTBD
Related business
None
Manufacturer
RATEKS
Mission
Operational spacecraft
Bus & Motor
CUBESAT 3U, Unknown motor
Mass
3 kg wet, 3 kg dry
Launch date (UTC)
2025-07-25 (1 month ago)
Launch vehicle
SOYUZ-2-1B
Launch site
Vostochny Cosmodrome (VOSTO)
Object type
Unknown
Shape & HBR
Unknown
Radar Cross Section
Small (<0.1 m²)

Expand to show TLE details & history
Last TLE update: 10 hours ago

TLE from 10 hours ago
0 OBJECT N
1 64888U 25155N   25242.84901270  .00028972  00000-0  12225-2 0  9990
2 64888  97.4147 207.6092 0011943 109.8548 250.3978 15.23180335 36472
Epoch: 2025-08-30T20:22Z
TLE epoch observation values (Epoch: 2025-08-30T20:22:34.697Z)
Latitude
0.00007°
Longitude
-77.31279°
Altitude
502.113 km
Speed
7.612 km/s
True Right ascension
13h 50m 26s
True Declination
0° 00' 00"
Sunlit
Object was in daylight at epoch
Visualization orbit readout
Latitude
Unknown
Longitude
Unknown
Altitude
Unknown
Speed
Unknown
Apparent Right ascension
Unknown
Apparent Declination
Unknown
Sunlit
N/A
Visualization observer readout
Local Sidereal Time
21:40:24
Azimuth
Unknown
Elevation
Unknown
Doppler factor
Unknown
Orbital elements
Apogee altitude
501.423 km
Perigee altitude
485.01 km
Semi-major axis
6,871.354 km
Eccentricity
0.00119
Inclination
97.4147°
RAAN
207.6092°
Arg. of periapsis
109.8548°
True anomaly
250.26894°
Mean anomaly
250.3978°
Eccentric anomaly
250.33336°
Mean motion
3.81048 °/min
Orbital period
94.48 mins
BSTAR
0.0012225
Loading maneuver chart data...
Computing Atmospheric mass density...
Loading historical data...
Loading historical data...
Loading historical data...
Loading historical data...
Loading historical data...
Loading historical data...
Loading historical data...

Documentation

Showing up to 5 results
|